Location: Alvediston
(51.0078°N, 2.0364°W)
Time: 06:09:47
(UTC+00:00)

Lacrosse 4 Rocket - Pass Details

Date: 27 February 2020
Orbit: 537 x 622 km, 68.0° (Epoch: 28 March)

Event Time Altitude Azimuth Distance (km) Brightness Sun altitude
Rises 19:22:10 0° 281° (W) 2,813 6.8 -16.1°
Reaches altitude 10° 19:25:36 10° 310° (NW) 1,936 5.0 -16.6°
Maximum altitude 19:27:36 13° 338° (NNW) 1,768 4.3 -16.9°
Drops below altitude 10° 19:29:36 10° 5° (N) 1,961 4.2 -17.2°
Enters shadow 19:32:19 - 29° (NNE) 2,630 4.6 -17.7°
